Siren, WI

1:29 PM CDT on August 23, 2017 (GMT -0500)
Burnett County

Weather History for KRZN - April, 2014

Change the Weather History Date:

Friday, April 4, 2014

  Actual Average Record
Temperature  
Mean Temperature 31 °F -  
Max Temperature 39 °F - - ()
Min Temperature 23 °F - - ()
Degree Days  
Heating Degree Days 34    
Moisture  
Dew Point 25 °F    
Average Humidity 80    
Maximum Humidity 97    
Minimum Humidity 50    
Precipitation  
Precipitation 0.32 in - - ()
Sea Level Pressure  
Sea Level Pressure 29.83 in    
Wind  
Wind Speed 11 mph (North)    
Max Wind Speed 20 mph    
Max Gust Speed 25 mph    
Visibility 7 miles    
Events Snow    
Averages and records for this station are not official NWS values.
T = Trace of Precipitation, MM = Missing Value Source: NWS Daily Summary

Daily Weather History Graph

Daily Weather History Graph

Search for Another Location

Airport or City:

Trip Planner

Search our weather history database for the weather conditions in past years. The results will help you decide how hot, cold, wet, or windy it might be!

Date:

Astronomy

Apr. 04, 2014 Rise Set
Actual Time 6:43 AM CDT 7:41 PM CDT
Civil Twilight 6:13 AM CDT 8:12 PM CDT
Nautical Twilight 5:37 AM CDT 8:48 PM CDT
Astronomical Twilight 4:59 AM CDT 9:26 PM CDT
Moon 9:50 AM CDT (4/4) 12:11 AM CDT (4/4)
Length of Visible Light 13h 58m
Length of Day
12h 58m
Waxing Crescent, 25% of the Moon is Illuminated
Apr 4
Waxing Crescent
Apr 7
First Quarter
Apr 15
Full
Apr 22
Last Quarter
Apr 29
New

Hourly Weather History & Observations

Time (CDT) Temp. Windchill Dew Point Humidity Pressure Visibility Wind Dir Wind Speed Gust Speed Precip Events Conditions
12:10 AM 28.0 °F 18.1 °F 27.1 °F 96% 29.81 in 0.8 mi NE 11.5 mph - N/A Snow Snow
12:30 AM 28.0 °F 18.1 °F 27.1 °F 96% 29.80 in 1.0 mi NE 11.5 mph - N/A Snow Light Snow
12:50 AM 28.0 °F 19.3 °F 27.1 °F 96% 29.79 in 2.0 mi NE 9.2 mph - N/A Snow Light Snow
1:10 AM 28.0 °F 18.6 °F 27.1 °F 96% 29.77 in 1.2 mi NE 10.4 mph - N/A Snow Light Snow
1:50 AM 27.9 °F 20.6 °F 27.1 °F 97% 29.78 in 1.0 mi NE 6.9 mph - N/A Snow Snow
2:10 AM 27.9 °F 19.8 °F 27.0 °F 96% 29.76 in 1.8 mi NNE 8.1 mph - N/A Snow Light Snow
2:30 AM 27.5 °F 18.0 °F 26.6 °F 96% 29.73 in 1.8 mi NNE 10.4 mph - N/A Snow Light Snow
2:50 AM 27.5 °F 18.0 °F 26.6 °F 96% 29.71 in 2.5 mi NNE 10.4 mph 17.3 mph N/A Snow Light Snow
3:10 AM 27.5 °F 21.1 °F 26.6 °F 96% 29.74 in 2.0 mi NNE 5.8 mph - N/A Snow Light Snow
3:30 AM 27.5 °F 18.6 °F 26.4 °F 96% 29.72 in 1.5 mi North 9.2 mph - N/A Snow Light Snow
3:50 AM 26.4 °F 17.3 °F 25.3 °F 96% 29.73 in 1.5 mi North 9.2 mph - N/A Snow Light Snow
4:10 AM 26.1 °F 15.6 °F 24.8 °F 95% 29.71 in 3.0 mi North 11.5 mph 16.1 mph N/A Snow Light Snow
4:30 AM 26.1 °F 15.6 °F 24.8 °F 95% 29.70 in 4.0 mi North 11.5 mph 19.6 mph N/A Snow Light Snow
4:50 AM 26.2 °F 16.4 °F 24.8 °F 94% 29.72 in 7.0 mi NNE 10.4 mph - N/A Snow Light Snow
5:10 AM 26.6 °F 16.8 °F 24.8 °F 93% 29.73 in 10.0 mi North 10.4 mph 17.3 mph N/A   Overcast
5:30 AM 27.1 °F 16.9 °F 25.3 °F 93% 29.71 in 10.0 mi NNE 11.5 mph - N/A   Overcast
5:50 AM 27.5 °F 18.0 °F 25.7 °F 93% 29.71 in 7.0 mi North 10.4 mph 18.4 mph N/A Snow Light Snow
6:10 AM 27.9 °F 16.8 °F 26.1 °F 93% 29.71 in 7.0 mi North 13.8 mph - N/A Snow Light Snow
6:30 AM 28.2 °F 17.7 °F 26.2 °F 92% 29.71 in 7.0 mi North 12.7 mph 18.4 mph N/A Snow Light Snow
6:50 AM 28.4 °F 17.5 °F 26.4 °F 92% 29.72 in 5.0 mi North 13.8 mph 21.9 mph N/A   Overcast
7:10 AM 28.9 °F 18.6 °F 26.6 °F 91% 29.73 in 7.0 mi North 12.7 mph - N/A   Overcast
7:30 AM 27.7 °F 16.1 °F 25.3 °F 91% 29.74 in 7.0 mi North 15.0 mph - N/A   Overcast
7:50 AM 27.1 °F 15.4 °F 24.6 °F 90% 29.74 in 7.0 mi North 15.0 mph 24.2 mph N/A Snow Light Snow
8:10 AM 27.0 °F 16.1 °F 24.6 °F 91% 29.74 in 3.0 mi North 12.7 mph 21.9 mph N/A Snow Light Snow
8:30 AM 27.1 °F 16.4 °F 25.0 °F 92% 29.74 in 1.2 mi North 12.7 mph 18.4 mph N/A Snow Light Snow
8:50 AM 27.3 °F 16.1 °F 25.7 °F 94% 29.74 in 0.8 mi North 13.8 mph 18.4 mph N/A Snow Light Snow
9:10 AM 28.2 °F 17.2 °F 26.1 °F 92% 29.74 in 1.5 mi North 13.8 mph 21.9 mph N/A Snow Light Snow
9:30 AM 29.3 °F 19.1 °F 25.7 °F 86% 29.74 in 5.0 mi North 12.7 mph 19.6 mph N/A   Overcast
9:50 AM 30.4 °F 20.0 °F 25.2 °F 81% 29.74 in 10.0 mi North 13.8 mph 19.6 mph N/A   Overcast
10:10 AM 31.3 °F 21.1 °F 25.3 °F 79% 29.76 in 10.0 mi North 13.8 mph 21.9 mph N/A   Overcast
10:50 AM 31.1 °F 21.4 °F 25.5 °F 80% 29.77 in 10.0 mi North 12.7 mph 21.9 mph N/A   Overcast
11:10 AM 31.8 °F 20.6 °F 25.7 °F 78% 29.78 in 10.0 mi North 17.3 mph - N/A   Overcast
11:30 AM 32.0 °F 22.5 °F 25.9 °F 78% 29.79 in 10.0 mi North 12.7 mph - N/A   Overcast
11:50 AM 32.0 °F 21.6 °F 26.2 °F 79% 29.80 in 4.0 mi North 15.0 mph 21.9 mph N/A   Haze
12:10 PM 32.9 °F 24.1 °F 26.4 °F 77% 29.81 in 7.0 mi North 11.5 mph 21.9 mph N/A   Overcast
12:50 PM 33.8 °F 24.8 °F 27.3 °F 77% 29.81 in 3.0 mi North 12.7 mph 17.3 mph N/A Snow Light Snow
1:10 PM 33.6 °F 23.3 °F 26.8 °F 76% 29.82 in 5.0 mi North 16.1 mph 20.7 mph N/A Snow Light Snow
1:30 PM 34.0 °F 24.6 °F 26.8 °F 75% 29.82 in 7.0 mi North 13.8 mph 21.9 mph N/A Snow Light Snow
1:50 PM 35.2 °F 25.4 °F 26.2 °F 70% 29.83 in 10.0 mi NNW 16.1 mph 23.0 mph 0.01 in   Overcast
2:10 PM 36.0 °F 26.7 °F 25.9 °F 67% 29.83 in 10.0 mi NNW 15.0 mph 21.9 mph 0.04 in   Overcast
2:30 PM 35.8 °F 25.1 °F 25.7 °F 67% 29.83 in 10.0 mi North 19.6 mph 24.2 mph 0.09 in   Overcast
2:50 PM 36.7 °F 28.9 °F 25.3 °F 64% 29.84 in 10.0 mi North 11.5 mph - 0.14 in   Overcast
3:10 PM 36.7 °F 26.6 °F 25.9 °F 65% 29.85 in 10.0 mi NNW 18.4 mph 24.2 mph 0.03 in   Overcast
3:30 PM 37.4 °F 28.9 °F 25.3 °F 62% 29.85 in 10.0 mi North 13.8 mph 20.7 mph 0.07 in   Overcast
3:50 PM 37.4 °F 28.5 °F 24.6 °F 60% 29.86 in 10.0 mi NNW 15.0 mph 25.3 mph 0.11 in   Mostly Cloudy
4:10 PM 37.6 °F 30.0 °F 24.8 °F 60% 29.87 in 10.0 mi NNW 11.5 mph 18.4 mph 0.02 in   Mostly Cloudy
4:30 PM 38.5 °F 30.7 °F 24.8 °F 58% 29.88 in 10.0 mi NNW 12.7 mph 21.9 mph 0.04 in   Mostly Cloudy
4:50 PM 38.5 °F 29.9 °F 24.4 °F 57% 29.88 in 10.0 mi NNW 15.0 mph 20.7 mph 0.05 in   Mostly Cloudy
5:10 PM 38.7 °F 30.5 °F 23.7 °F 55% 29.89 in 10.0 mi North 13.8 mph 23.0 mph 0.01 in   Mostly Cloudy
5:30 PM 38.5 °F 30.7 °F 23.4 °F 55% 29.90 in 10.0 mi North 12.7 mph 19.6 mph 0.01 in   Mostly Cloudy
5:50 PM 39.2 °F 33.0 °F 23.2 °F 53% 29.90 in 10.0 mi NNW 9.2 mph 19.6 mph 0.01 in   Scattered Clouds
6:10 PM 39.4 °F 31.8 °F 22.6 °F 51% 29.91 in 10.0 mi North 12.7 mph 16.1 mph N/A   Clear
6:30 PM 39.4 °F 31.1 °F 22.3 °F 50% 29.92 in 10.0 mi NNW 15.0 mph - N/A   Clear
6:50 PM 38.5 °F 32.1 °F 23.4 °F 55% 29.93 in 10.0 mi NNW 9.2 mph - N/A   Clear
7:10 PM 38.3 °F 31.9 °F 23.0 °F 54% 29.93 in 10.0 mi NW 9.2 mph - N/A   Clear
7:30 PM 37.2 °F 31.9 °F 23.9 °F 59% 29.94 in 10.0 mi NW 6.9 mph - N/A   Clear
7:50 PM 36.5 °F 31.8 °F 23.5 °F 59% 29.94 in 10.0 mi NNW 5.8 mph - N/A   Clear
8:10 PM 35.6 °F 32.8 °F 23.5 °F 62% 29.95 in 10.0 mi NW 3.5 mph - N/A   Clear
8:30 PM 32.5 °F 28.1 °F 24.1 °F 71% 29.96 in 10.0 mi NW 4.6 mph - N/A   Clear
8:50 PM 30.2 °F - 24.4 °F 79% 29.97 in 10.0 mi Calm Calm - N/A   Clear
9:10 PM 29.1 °F 25.4 °F 24.6 °F 83% 29.97 in 10.0 mi SW 3.5 mph - N/A   Clear
9:30 PM 27.7 °F - 23.7 °F 85% 29.98 in 10.0 mi Calm Calm - N/A   Clear
9:50 PM 26.2 °F - 23.0 °F 88% 29.98 in 10.0 mi Calm Calm - N/A   Clear
10:10 PM 26.2 °F - 24.6 °F 94% 29.99 in 10.0 mi Calm Calm - N/A   Clear
10:30 PM 26.6 °F - 23.9 °F 90% 29.99 in 10.0 mi Calm Calm - N/A   Clear
10:50 PM 26.6 °F - 24.4 °F 92% 30.00 in 10.0 mi Calm Calm - N/A   Clear
11:10 PM 23.0 °F - 21.7 °F 95% 30.00 in 10.0 mi Calm Calm - N/A   Clear
11:50 PM 24.8 °F 20.5 °F 23.7 °F 96% 30.00 in 10.0 mi West 3.5 mph - N/A   Clear